{"data":{"norad_id":49396,"intl_designator":"2021-102B","name":"TEIKYOSAT-4 (OORURI)","alt_names":[],"object_type":"PAYLOAD","status":"ACTIVE","operator":null,"country":"JPN","launch_date":"2021-11-09","launch_site_code":"KSCUT","launch_vehicle":null,"mission":null,"orbit_class":"UNKNOWN","rcs_meters":null,"size_class":null,"mass_kg":null,"dimensions":null,"purposes":[],"wikipedia_slug":null,"has_3d_model":false,"image_url":null,"decayed_at":null,"tle_current":{"epoch":"2026-05-25T01:14:12.160896Z","epoch_age_seconds":77437,"freshness":"FRESH","line1":"1 49396U 21102B   26145.05152964  .00001404  00000+0  91505-4 0  9999","line2":"2 49396  97.3685 175.4344 0012554  20.8330 339.3409 15.09411383249238","mean_motion":15.09411383,"eccentricity":0.0012554,"inclination_deg":97.3685,"raan_deg":175.4344,"arg_perigee_deg":20.833,"mean_anomaly_deg":339.3409,"bstar":9.1505e-5,"rev_number":24923,"period_min":95.40142708729,"perigee_km":529.31493549224,"apogee_km":546.67996587101,"semimajor_km":6916.1344506816,"source":"CELESTRAK","updated_at":"2026-05-25T13:37:57.193139Z"}}}